Regional Weather Roundup
Issued by NWS

Home | Current Version | Previous Version | Graphics & Text | Print | Product List | Glossary On
Versions: 1 2 3 4 5 6 7 8 9 10 11 12 13 14 15 16 17 18 19 20 21 22 23 24 25 26 27 28 29 30 31 32 33 34 35 36 37 38 39 40 41 42 43 44 45 46 47 48 49 50
381
ASUS44 KMEG 260810
RWRTN
TENNESSEE HOURLY STATE WEATHER ROUNDUP
NATIONAL WEATHER SERVICE MEMPHIS TN
300 AM CDT FRI MAY 26 2017

TNZ002-004-019-021-049-052-054-088>092-260900-
WEST TENNESSEE

CITY           SKY/WX    TMP DP  RH WIND       PRES   REMARKS
MEMPHIS INTL   CLEAR     66  57  72 S9        29.85R
NWS MEMPHIS      N/A     62 N/A N/A MISG        N/A
JACKSON        CLOUDY    57  55  93 CALM      29.87R
DYERSBURG        N/A    N/A N/A N/A MISG        N/A
UNION CITY       N/A     57  54  88 CALM      29.86R
BOLIVAR        PTCLDY    55  54  94 CALM      29.87S
PARIS          CLEAR     57  54  88 S5        29.87R
HUNTINGDON     PTCLDY    57  54  88 CALM      29.87R
LEXINGTON      CLEAR     54  52  94 MISG      29.89R
SELMER         CLEAR     61  54  77 SW3       29.89R
SAVANNAH       CLEAR     57  55  94 CALM      29.89R
$$

TNZ008-025-027-028-033-062-065-066-260900-
NORTH MIDDLE TENNESSEE

CITY           SKY/WX    TMP DP  RH WIND       PRES   REMARKS
NASHVILLE      CLEAR     56  52  86 S5        29.91S
PORTLAND       CLEAR     57  52  82 S8        29.90R
CLARKSVILLE    CLEAR     54  51  90 CALM      29.89R
SMYRNA         PTCLDY    54  51  90 SE5       29.93R
COOKEVILLE     PTCLDY    50  48  93 CALM      29.93R FOG
GALLATIN       CLEAR     52  52 100 CALM      29.94R
CROSSVILLE     CLEAR     49  48  97 CALM      29.96R FOG
$$

TNZ061-075-076-078-094-096-097-260900-
SOUTH MIDDLE TENNESSEE

CITY           SKY/WX    TMP DP  RH WIND       PRES   REMARKS
FAYETTEVILLE   CLEAR     57  52  82 S5        29.94R
TULLAHOMA      CLEAR     50  46  87 CALM      29.95R
WINCHESTER     CLEAR     54  52  94 CALM        N/A
MCMINNVILLE    CLEAR     52  52 100 CALM      29.94R
COLUMBIA       CLEAR     54  54 100 CALM      29.90S
SHELBYVILLE    CLEAR     52  52 100 CALM      29.93R
$$

TNZ017-018-042-046-047-260900-
NORTHEAST TENNESSEE

CITY           SKY/WX    TMP DP  RH WIND       PRES   REMARKS
TRI CITIES     PTCLDY    56  53  90 W8        29.91R
ELIZABETHTON   CLOUDY    57  54  88 NW6       29.91R
$$

TNZ012-013-036-069-073-074-260900-
CENTRAL EAST TENNESSEE

CITY           SKY/WX    TMP DP  RH WIND       PRES   REMARKS
KNOXVILLE      CLEAR     55  51  86 S6        29.92S
OAK RIDGE      CLEAR     54  51  90 CALM      29.94S
DOWNTOWN KNOXV CLEAR     54  54 100 CALM      29.93S FOG
GATLINBURG     CLEAR     52  48  87 CALM      29.93R
MORRISTOWN     CLOUDY    57  54  88 W7        29.92R
JACKSBORO      CLEAR     52  52 100 CALM      29.95R
$$

TNZ083-085-099-260900-
SOUTHEAST TENNESSEE

CITY           SKY/WX    TMP DP  RH WIND       PRES   REMARKS
CHATTANOOGA    CLEAR     55  52  89 CALM      29.96R
$$

SKY/WX REPORTED AS FAIR MEANS FEW OR NO CLOUDS BELOW
12 THOUSAND FEET.





USA.gov is the U.S. government's official web portal to all federal, state and local government web resources and services.